Location: Bastelaar
(51.0950°N, 3.8602°E)
Time: 17:05:50
(UTC+00:00)

Okean 2 Rocket - Pass Details

Date: 18 November 2025
Orbit: 611 x 635 km, 82.5° (Epoch: 10 December)

Event Time Altitude Azimuth Distance (km) Brightness Sun altitude
Rises 18:49:13 0° 209° (SSW) 2,885 6.8 -27.4°
Reaches altitude 10° 18:51:34 10° 218° (SW) 1,981 6.0 -27.7°
Maximum altitude 18:55:40 39° 287° (WNW) 931 4.3 -28.4°
Enters shadow 18:57:20 28° 333° (NNW) 1,169 4.7 -28.6°
